TIME,DELAY(SENSOR),PRES,T(CTD),SAL,OXYGEN,RAWTEMP,T(OPTODE),TCPHASE,FLUOR,BETA(BETA700),BETA(BETA412),BETA(BETA440),CDOM,C(CSC),ED(ED412.40),ED(ED444.00),ED(ED489.70),ED(ED554.30),LU(LU411.80),LU(LU443.40),LU(LU489.60),LU(LU554.10),COMP,TILTX,TILTX(TILTY),CHECK
1355692999,5808,497.2099914550781000,6.0693998336791990,34.1618995666503900,61.7799110412597660,616.5817871093750000,6.0472869873046875,51.3977699279785160,52,103,89,80,80,11950,2147749659,2147421805,2148005211,2147873106,2147632841,2147073408,2148253184,2147195986,865,4,13,19871
1355693120,5808,485.8800048828125000,6.2389998435974120,34.1433982849121100,67.4411697387695300,611.5114135742188000,6.2117691040039060,50.6004295349121100,52,106,88,81,79,11984,2147750546,2147426267,2148003693,2147871250,2147636123,2147079533,2148249334,2147200393,770,4,13,11041
1355693243,5807,475.5299987792969000,6.3671998977661130,34.1376991271972660,72.7620468139648400,607.4594116210938000,6.3430371284484860,49.8829193115234400,52,103,89,80,78,12147,2147746038,2147423579,2148005787,2147873910,2147632923,2147075163,2148240804,2147198875,3488,4,13,32919
1355693386,5808,464.3800048828125000,6.5191001892089840,34.1337013244628900,76.8601837158203100,602.7180175781250000,6.4964327812194820,49.3202095031738300,52,103,87,80,79,11968,2147750006,2147422189,2148006180,2147873517,2147630692,2147075026,2148246857,2147193353,2862,4,13,36584
1355693529,5808,453.3299865722656000,6.8543000221252440,34.1292991638183600,80.5027694702148400,592.1079101562500000,6.8389148712158200,48.7344093322753900,52,105,88,80,80,12258,2147747638,2147422875,2148006619,2147872941,2147632877,2147079424,2148248393,2147199241,3479,4,13,63227
1355693653,5809,442.2500000000000000,7.0644998550415040,34.1357994079589840,82.5535125732421900,585.7261962890625000,7.0444030761718750,48.4015998840332000,52,107,90,80,79,11998,2147747648,2147423350,2148003584,2147872374,2147627757,2147078820,2148241929,2147198564,3339,4,13,17536
1355693774,5806,431.4899902343750000,7.1812000274658200,34.1234016418457000,88.3783264160156200,581.8319702148438000,7.1696128845214840,47.6762504577636700,51,105,88,80,79,12059,2147747812,2147423030,2148001700,2147871780,2147627538,2147085458,2148245394,2147202587,3486,4,13,39537
1355693908,5806,420.5199890136719000,7.4373002052307130,34.1321983337402340,94.8828887939453100,573.7719116210938000,7.4283289909362790,46.8332901000976560,52,104,86,80,78,11950,2147745280,2147424603,2148004882,2147872338,2147627858,2147078208,2148238528,2147200393,246,4,12,1471
1355694051,5810,409.4299926757812500,7.5573000907897950,34.1290016174316400,100.1885986328125000,570.1549072265625000,7.5442390441894530,46.2052307128906250,52,107,87,79,77,11991,2147746002,2147425910,2148005312,2147870848,2147627136,2147077394,2148238281,2147200256,2422,4,13,26383
1355694209,5808,395.4100036621094000,7.8801999092102050,34.1162986755371100,112.2213973999023400,560.2650146484375000,7.8605937957763670,44.8121414184570300,51,103,89,81,78,11953,2147743012,2147423734,2148001901,2147872329,2147626102,2147091117,2148236489,2147199369,1992,4,13,63124
1355694308,5808,384.5299987792969000,8.0698003768920900,34.1147003173828100,118.4197998046875000,553.8477172851562000,8.0654201507568360,44.0979194641113300,50,106,88,81,76,12061,2147742592,2147422637,2148004845,2147871689,2147622180,2147091721,2148238665,2147201810,1868,4,13,32978
1355694407,5808,373.2099914550781000,8.4184999465942380,34.1156005859375000,128.8943939208984400,543.2719116210938000,8.4022331237792970,42.9390106201171900,50,105,88,81,76,12049,2147742738,2147425618,2148005184,2147874953,2147621933,2147089984,2148233453,2147200786,1535,4,13,62617
1355694525,5806,360.8399963378906000,8.6215000152587890,34.1120986938476560,137.8793945312500000,536.5305175781250000,8.6164569854736330,42.0258598327636700,50,105,87,81,76,11953,2147740562,2147423661,2148001691,2147871561,2147621312,2147089554,2148229577,2147201682,903,4,13,36581
1355694635,5808,350.7300109863281000,8.8197002410888670,34.1129989624023440,145.4786987304687500,530.5443725585938000,8.8063764572143550,41.2756805419921900,50,106,90,81,75,11987,2147739693,2147421933,2148005668,2147872804,2147617773,2147092260,2148233453,2147201243,1041,3,13,63092
1355694756,5810,340.2399902343750000,9.1096000671386720,34.1096992492675800,151.8986053466797000,521.2911987304688000,9.0994071960449220,40.5900382995605500,50,107,89,81,73,11883,2147738340,2147424969,2148004690,2147872640,2147616411,2147095899,2148230893,2147202011,129,4,13,36802
1355694890,5808,329.7799987792969000,9.6174001693725590,34.0989990234375000,166.2823028564453000,504.7737121582031000,9.6209011077880860,39.1932296752929700,50,106,88,80,73,11931,2147739995,2147424713,2148006674,2147875446,2147618660,2147092864,2148229001,2147201974,3444,4,13,28029
1355695044,5810,319.1499938964844000,9.8505001068115230,34.1095008850097660,176.1356964111328000,498.0747070312500000,9.8318471908569340,38.3656387329101560,50,105,87,80,71,11950,2147736658,2147423158,2148010477,2147872301,2147613156,2147099949,2148226450,2147204818,1895,4,13,20713
1355695208,5809,307.2500000000000000,10.0790004730224610,34.1123008728027340,182.9483947753906200,489.6648864746094000,10.0962295532226560,37.7523689270019500,49,106,89,81,71,11966,2147734738,2147424594,2148012452,2147871844,2147610989,2147104822,2148225188,2147202989,1543,4,13,24368
1355695351,5807,296.5799865722656000,10.9447002410888670,34.1212005615234400,190.9958038330078000,463.2564086914062500,10.9234199523925780,36.7775001525878900,49,107,88,80,70,11879,2147729865,2147427821,2148022198,2147871725,2147608868,2147107968,2148232000,2147203163,1725,4,14,35065
1355695496,5806,284.4899902343750000,11.1069002151489260,34.1419982910156250,197.8280029296875000,457.5017089843750000,11.1030998229980470,36.2499504089355500,49,104,85,80,71,11934,2147730907,2147429357,2148032347,2147873910,2147606144,2147115648,2148235721,2147205001,1459,3,13,60481
1355695595,5809,273.7600097656250000,11.3868999481201170,34.1454010009765600,199.0661010742187500,447.4726867675781000,11.4157800674438480,36.0088882446289060,48,105,84,80,70,11989,2147731181,2147431579,2148045787,2147873133,2147602889,2147122011,2148238171,2147205138,1736,4,13,13771
1355695694,5811,262.6600036621094000,12.1240997314453120,34.1831016540527340,202.9996032714843800,425.2134094238281000,12.1077995300292970,35.4106903076171900,48,105,89,81,69,11897,2147731062,2147436644,2148066578,2147870985,2147602944,2147126107,2148242112,2147206262,2815,3,13,14555
1355695812,5808,251.4299926757812500,12.7430000305175780,34.2240982055664060,206.6385040283203000,405.2247009277344000,12.7270898818969730,34.8782806396484400,49,107,85,81,69,12068,2147728073,2147442294,2148072338,2147873645,2147598866,2147128484,2148244443,2147206372,3013,4,14,14432
1355695966,5812,241.0000000000000000,13.1992998123168950,34.2689018249511700,209.0895996093750000,389.3688049316406000,13.2170400619506840,34.4886207580566400,49,105,88,80,68,11899,2147726299,2147447122,2148085184,2147873225,2147595392,2147135725,2148247936,2147209938,3352,3,14,8673
1355696151,5816,229.6900024414062500,13.9204998016357420,34.3055000305175800,210.1329040527343800,366.6506958007812500,13.9172601699829100,34.0807609558105500,48,105,87,80,69,12611,2147723483,2147467300,2148143670,2147870336,2147593910,2147154230,2148268745,2147206957,1801,4,13,14747
1355696305,5809,218.3800048828125000,14.6246004104614260,34.3783988952636700,212.1371002197265600,343.0185852050781000,14.6437196731567380,33.6110687255859400,50,105,89,81,68,11899,2147720777,2147496155,2148214281,2147870866,2147589156,2147170816,2148295616,2147214308,2040,3,14,61907
1355696427,5806,206.6900024414062500,15.5445995330810550,34.4486999511718750,208.9927978515625000,314.2424926757812500,15.5261402130126950,33.3633003234863300,48,101,85,80,66,12085,2147725440,2147520018,2148261860,2147872256,2147586742,2147188553,2148321325,2147216521,2951,3,14,1731
1355696515,5807,197.1499938964843800,16.0601005554199220,34.5233001708984400,210.4376983642578000,296.4346008300781000,16.0712795257568360,33.0223197937011700,49,103,87,80,66,11917,2147730422,2147562468,2148363867,2147870930,2147588251,2147221888,2148363346,2147222500,1985,3,14,52348
1355696570,5805,191.1499938964843800,16.3595008850097660,34.5642013549804700,211.4685974121093800,285.0226135253906000,16.4203395843505860,32.7999382019043000,49,104,87,80,67,11893,2147730779,2147586450,2148414976,2147872969,2147588050,2147235337,2148386038,2147220388,1764,2,13,6034
1355696625,5807,185.4100036621093800,17.1074008941650400,34.6321983337402340,210.6587066650390600,261.4213867187500000,17.1416606903076170,32.5082588195800800,49,102,91,79,65,11928,2147735113,2147614089,2148464027,2147874834,2147588086,2147251200,2148406363,2147224246,635,3,14,57265
1355696700,5806,178.4499969482422000,17.6674003601074220,34.7139015197753900,212.0036010742187500,244.6667022705078000,17.6534309387207030,32.1974182128906250,50,102,85,80,65,11935,2147751899,2147692562,2148626486,2147875291,2147588754,2147304548,2148484397,2147233124,392,3,14,18801
1355696755,5805,173.8500061035156200,17.9076004028320300,34.7513008117675800,212.0825958251953000,234.4002990722656200,17.9669609069824220,32.0498390197753900,50,103,89,79,65,11817,2147764818,2147763995,2148782400,2147871817,2147594340,2147351259,2148562724,2147235693,882,2,15,32697
1355696810,5805,169.8300018310547000,18.2404003143310550,34.8135986328125000,213.2769927978515600,225.9337005615234400,18.2255096435546880,31.8670005798339840,50,101,85,81,64,11835,2147785033,2147894848,2149071387,2147875995,2147597833,2147425234,2148698953,2147244361,911,3,15,23479
1355696865,5807,165.9199981689453000,18.5375995635986330,34.8543014526367200,213.4006042480468800,215.9109954833984400,18.5316009521484380,31.7222194671630860,50,102,88,80,65,11927,2147810916,2148001654,2149295680,2147875300,2147606811,2147486043,2148802102,2147255442,734,3,14,33939
1355696920,5807,162.1199951171875000,18.8038005828857420,34.8941993713378900,213.9790954589843800,207.4060974121093800,18.7913494110107420,31.5740394592285160,50,105,86,80,64,12245,2147831588,2148099209,2149484352,2147877577,2147617024,2147555867,2148893321,2147265508,1013,2,15,9146
1355697009,5808,156.6300048828125000,19.2800006866455080,34.9603996276855500,215.1858978271484400,191.9387969970703000,19.2638702392578120,31.2985191345214840,52,101,86,79,64,11911,2147863058,2148183213,2149621833,2147878976,2147627026,2147614765,2148968539,2147268818,763,3,15,38185
1355697064,5809,153.5599975585937500,19.3894996643066400,34.9776000976562500,215.4037933349609400,187.6838989257812500,19.3938903808593750,31.2291393280029300,54,103,86,81,64,11913,2147885696,2148251556,2149746404,2147879268,2147637321,2147648722,2149021010,2147272118,685,2,14,9770
1355697141,5808,149.1999969482422000,19.5393009185791000,34.9999008178710940,216.0422058105468800,183.2756958007812500,19.5286197662353500,31.1356506347656250,56,106,89,81,64,12383,2147933595,2148419465,2150047808,2147882944,2147656694,2147748690,2149167579,2147283227,438,3,15,9615
1355697207,5808,145.3500061035156200,19.5701007843017580,35.0060005187988300,216.3816070556640600,181.7158050537109400,19.5762996673584000,31.0965099334716800,57,104,88,80,65,11941,2147938788,2148343515,2149825865,2147882377,2147658459,2147708480,2149050605,2147276425,3561,2,15,16811
1355697283,5807,141.0899963378906200,19.7940006256103500,34.8286018371582000,216.4329071044922000,174.7794952392578000,19.7883491516113280,31.0006008148193360,59,105,89,81,65,12777,2147970742,2148401664,2149896329,2147880256,2147672978,2147739794,2149084288,2147284242,2547,2,15,43963
1355697351,5810,137.5599975585937500,20.0501995086669920,34.8233985900878900,216.8594055175781200,168.3789978027343800,19.9840908050537100,30.8922004699707030,61,107,90,81,63,14781,2148092580,2148769243,2150577600,2147885458,2147719570,2147952777,2149396982,2147301814,2530,2,15,19616
1355697439,5807,133.7500000000000000,20.4164009094238280,34.8815002441406250,219.0464019775390600,156.3325042724609400,20.3526592254638670,30.6178092956542970,61,106,89,82,62,14791,2148114304,2148743515,2150456658,2147887222,2147734628,2147953042,2149364653,2147299684,3557,2,15,27027
1355697538,5807,129.6499938964843800,20.5797996520996100,34.9101982116699200,221.7776031494140600,149.1479949951172000,20.5725994110107420,30.3825492858886720,63,105,84,81,64,14790,2148204288,2148917211,2150723017,2147892525,2147774537,2148057856,2149484973,2147311296,987,2,15,63905
1355697637,5808,125.6399993896484400,20.7712993621826170,34.8605995178222660,222.7460021972656200,143.3303070068359400,20.7507801055908200,30.2570095062255860,64,107,88,81,62,14790,2148308169,2149114075,2151012864,2147895515,2147821878,2148181147,2149630052,2147325019,792,2,15,42652
1355697727,5805,121.7799987792968800,20.9570007324218750,34.8950004577636700,223.4170074462890600,137.0984954833984400,20.9417190551757800,30.1414699554443360,62,103,87,81,62,14795,2148517476,2149577280,2151791753,2147908937,2147914441,2148455049,2150005714,2147352539,331,2,15,37539
1355697825,5807,117.6999969482421900,21.0118999481201170,34.9061012268066400,223.9882965087890600,135.0209960937500000,21.0053997039794920,30.0857391357421880,64,103,88,80,62,14794,2148599798,2149612004,2151749513,2147913234,2147948891,2148485824,2149993673,2147357851,3304,2,15,2387
1355697924,5807,113.7799987792968800,21.1537990570068360,34.9202003479003900,224.3338928222656200,130.5594024658203000,21.1421909332275400,30.0099296569824220,67,106,87,81,62,14791,2149003721,2150494317,2153245248,2147939702,2148124754,2149006400,2150717878,2147412681,2662,2,15,9194
1355698036,5810,109.9899978637695300,21.2371006011962900,34.9281005859375000,225.8209075927734400,127.3206024169921900,21.2415103912353500,29.8940696716308600,71,110,90,82,62,14771,2148947602,2150152064,2152462592,2147936621,2148109001,2148800539,2150325577,2147385938,2161,2,15,29191
1355698168,5810,106.1100006103515600,21.3855991363525400,34.9194984436035160,227.0903930664062500,122.9172973632812500,21.3766002655029300,29.7742004394531250,82,118,89,82,63,14771,2149318564,2150790774,2153441636,2147961563,2148267200,2149147721,2150770413,2147425600,1624,2,15,17982
1355698331,5804,101.1800003051757800,21.5515995025634770,34.9207992553710940,227.8531036376953000,117.5399017333984400,21.5416393280029300,29.6672496795654300,90,114,93,83,61,14718,2149794934,2151424768,2154326107,2147993572,2148460480,2149468096,2151172333,2147462400,3258,2,16,50909
1355698386,5807,98.9400024414062500,21.6100006103515620,34.9240989685058600,228.8220062255859400,116.0354995727539000,21.5878200531005860,29.6007194519042970,91,118,90,83,62,14770,2149824868,2151284352,2153942829,2147989878,2148462893,2149349302,2150950646,2147449417,3113,2,16,30737
1355698441,5806,96.8300018310546900,21.7490997314453120,34.9338989257812500,229.4868927001953000,111.0322036743164000,21.7414798736572270,29.5040607452392580,92,115,90,83,61,14721,2151569718,2154527670,2159271552,2148120036,2149172306,2151022884,2153246518,2147641188,527,1,15,8801
1355698496,5807,95.1800003051757800,21.8222999572753900,34.9443016052246100,230.3320007324218800,108.6589965820312500,21.8143901824951170,29.4328193664550780,95,116,87,81,62,14761,2150605632,2152408274,2155521197,2148040841,2148775460,2149901129,2151607488,2147512393,460,3,16,25063
1355698573,5807,93.0999984741211000,21.9290008544921880,34.9472007751464840,231.1804962158203000,105.1399993896484400,21.9225292205810550,29.3470401763916000,103,115,90,82,60,14694,2153054683,2156674386,2162405376,2148226642,2149770532,2152083017,2154585353,2147772544,176,2,16,50853
1355698651,5806,90.7099990844726600,22.0280990600585940,34.9457015991210940,232.4747924804687500,101.6835021972656200,22.0287895202636720,29.2411098480224600,106,116,90,82,61,14629,2153436342,2156861330,2162310098,2148250980,2149893897,2152060516,2154412891,2147770742,136,2,15,10060
1355698706,5811,88.5299987792968800,22.1681995391845700,34.9450988769531250,232.4176025390625000,97.7397766113281200,22.1500797271728500,29.1933593750000000,111,119,89,82,61,14615,2152595346,2154937682,2158747209,2148166720,2149549193,2151017289,2152871369,2147644864,63,2,15,24290
1355698761,5809,86.5400009155273400,22.2966995239257800,34.9514999389648440,232.2292938232422000,94.0801467895507800,22.2626705169677730,29.1557598114013670,112,120,88,82,62,14735,2154675300,2158141522,2163600118,2148332598,2150370377,2152532361,2154883355,2147836196,239,2,15,28537
1355698816,5808,84.9000015258789000,22.3666992187500000,34.9572982788085940,232.0164947509765600,91.0160369873046900,22.3569793701171880,29.1265697479248050,118,117,90,83,63,14736,2155133888,2158579620,2163902857,2148377691,2150512758,2152587501,2154812352,2147846518,954,2,16,40382
1355698882,5808,83.2200012207031200,22.4286994934082030,34.9616012573242200,232.3096923828125000,88.8769836425781200,22.4228401184082030,29.0854892730712900,122,117,88,82,62,14736,2157278418,2161617691,2168035830,2148531401,2151331995,2153875218,2156359168,2148011181,1740,2,16,46542
1355698960,5809,81.0000000000000000,22.5760993957519530,34.9679985046386700,232.8025054931640600,83.6728134155273400,22.5831394195556640,28.9961605072021500,131,120,93,81,61,14499,2159361161,2163966418,2170589577,2148695872,2152027794,2154604726,2156993600,2148117348,1304,2,16,17725
1355699015,5809,79.0299987792968800,22.7429008483886720,34.9677009582519500,234.1831054687500000,78.7385177612304700,22.7352199554443360,28.8686695098876950,135,120,88,82,61,14710,2163568685,2169661696,2178122971,2149011099,2153681252,2157115236,2160028946,2148440493,1441,2,16,46012
1355699081,5807,77.0100021362304700,22.9379997253417970,34.9688987731933600,235.2597961425781200,72.6777420043945300,22.9221401214599600,28.7421607971191400,137,119,93,83,61,14527,2163272027,2168310948,2175020617,2148878976,2153573092,2156428489,2158895232,2148334893,1827,2,15,344
1355699147,5813,75.1999969482421900,23.1236991882324220,34.9910011291503900,236.3022003173828000,67.8018569946289000,23.0726299285888670,28.6324291229248050,132,117,89,83,62,14710,2168361508,2174587968,2182740397,2149255094,2155435053,2158943972,2161730432,2148669869,2218,2,15,23500
1355699224,5808,73.0500030517578100,23.3376007080078120,34.9869995117187500,237.4600067138672000,59.7293891906738300,23.3220005035400400,28.4781303405761720,126,120,90,82,61,14706,2164680420,2168131126,2172695744,2148914285,2153974061,2156078912,2157811730,2148285083,2922,2,15,41857
1355699302,5807,70.3399963378906200,23.5004005432128900,34.9945983886718750,239.1945953369140600,54.5437088012695300,23.4823398590087900,28.3343296051025400,107,119,88,84,61,14720,2173048045,2178106816,2184296393,2149527881,2157198774,2160226249,2162156050,2148797568,609,2,15,5651
1355699357,5806,67.8499984741211000,24.3918991088867200,34.9933013916015600,237.5511932373047000,30.5244598388671880,24.2266407012939450,28.1098594665527340,97,118,90,84,59,14713,2180560320,2186875693,2194104100,2150186852,2160708260,2164636836,2166621028,2149336420,805,2,16,62137
1355699412,5811,66.5800018310546900,24.6432991027832030,35.0180015563964840,238.1188049316406200,23.8342609405517580,24.4344692230224600,28.0012702941894530,101,118,90,83,59,14713,2183687021,2190988306,2199087963,2150506596,2162066276,2166316059,2168275785,2149565814,1079,2,16,55435
1355699622,5812,64.0400009155273400,24.7877998352050780,35.0284004211425800,237.0899047851562500,14.3061399459838870,24.7308597564697270,27.9298591613769530,89,120,91,83,59,14712,2186460160,2194085449,2201986523,2150955776,2164267611,2168739940,2170436955,2149853586,1495,2,16,11692
1355699699,5809,62.7500000000000000,24.9111995697021500,35.0433006286621100,236.5361022949218800,9.2906084060668950,24.8870792388916000,27.8929691314697270,79,120,92,84,58,14717,2173352640,2176868032,2180511250,2149703268,2159446363,2161546669,2162102107,2148866148,2004,2,16,65097
1355699987,5807,59.7900009155273440,25.0307006835937500,35.0494003295898440,236.3238983154297000,4.8174619674682620,25.0265293121337900,27.8473491668701170,68,119,92,84,58,14720,2198198628,2207593974,2216976100,2152813668,2179042084,2184016448,2182504000,2151187840,1191,2,16,59220
1355700042,5802,57.1899986267089840,25.0337009429931640,35.0493011474609400,236.2003936767578000,4.6549921035766600,25.0316009521484380,27.8510208129882800,65,119,90,84,58,14725,2185169133,2190639268,2195774317,2151478985,2172791707,2175388653,2173165540,2150114578,1335,1,15,60816
1355700097,5809,54.2799987792968750,25.0340995788574220,35.0516014099121100,236.4588928222656200,4.6670889854431150,25.0312194824218750,27.8394508361816400,63,118,93,85,57,14716,2189644187,2195534747,2201063058,2152459849,2177368128,2180031250,2176778505,2150606555,1348,1,16,52747
1355700152,5807,51.2599983215332000,25.0344009399414060,35.0516014099121100,236.5305938720703000,4.6753501892089840,25.0309600830078120,27.8363304138183600,62,118,90,84,55,14720,2181251254,2184740946,2188103789,2151928100,2172672987,2173938450,2170682752,2149980809,1356,1,16,37720
1355700209,5808,48.4099998474121100,25.0354995727539060,35.0522994995117200,236.6643981933593800,4.5882129669189450,25.0336799621582030,27.8291301727294920,62,121,89,84,58,14331,2184295012,2188026642,2191671268,2152695424,2175846500,2177144649,2173124681,2150336566,1184,1,16,4506
1355700264,5809,45.8199996948242200,25.0349998474121100,35.0533981323242200,236.6847991943359400,4.5829029083251950,25.0338497161865230,27.8281593322753900,60,119,93,85,56,14720,2185500681,2188949677,2192336557,2153203584,2177656036,2178561645,2173880521,2150516123,1141,2,16,11871
1355700319,5805,43.1899986267089840,25.0349998474121100,35.0527000427246100,236.8298950195312500,4.5987367630004880,25.0333499908447270,27.8218193054199220,62,119,90,86,58,14717,2200247049,2206370541,2212546880,2157351552,2190253302,2192413778,2185799186,2152352036,1028,1,16,37131
1355700374,5809,40.6199989318847660,25.0326004028320300,35.0536003112793000,236.8435974121093800,4.6256837844848630,25.0325107574462900,27.8214607238769530,63,119,90,83,59,14727,2196928146,2201749705,2206790811,2157283638,2188516068,2189823003,2183050276,2152113865,788,2,16,30969
1355700429,5807,38.1699981689453100,25.0342998504638670,35.0539016723632800,236.9532928466797000,4.5995240211486820,25.0333309173584000,27.8162803649902340,62,119,91,85,56,14735,2194594395,2198481243,2202736073,2157922486,2187937499,2188671488,2181659995,2152124818,720,1,16,62326
1355700484,5805,35.6699981689453100,25.0335006713867200,35.0544013977050800,237.0124053955078000,4.6216521263122560,25.0326404571533200,27.8138008117675780,61,118,89,86,57,14734,2193865755,2197168228,2200880292,2158636973,2188188169,2188376429,2180994102,2152240777,610,1,16,8637
1355700541,5807,32.8499984741210940,25.0347003936767580,35.0539016723632800,237.1174926757812500,4.5223212242126465,25.0357398986816400,27.8078994750976560,61,121,92,84,59,14724,2199759387,2203556032,2207898057,2161723913,2193957385,2194074697,2185444013,2153282011,354,0,16,26533
1355700596,5808,30.0300006866455080,25.0347003936767580,35.0532989501953100,237.0834045410156200,4.5069789886474610,25.0362091064453120,27.8092002868652340,59,120,91,84,55,14735,2197243520,2200425664,2204333814,2162779785,2192519122,2192288402,2183786020,2153329115,172,1,15,22768
1355700651,5807,27.0200004577636720,25.0340003967285160,35.0522994995117200,237.1387023925781200,4.6142749786376950,25.0328693389892580,27.8080692291259770,60,118,90,84,59,14724,2187402560,2189406656,2192219977,2160315986,2184246061,2183562276,2176591926,2152304064,376,3,17,9604
1355700706,5808,24.0499992370605470,25.0326004028320300,35.0525016784668000,237.0717926025390600,4.6115221977233890,25.0329494476318360,27.8110694885253900,61,117,91,84,58,14070,2182663808,2184018788,2186234523,2160046537,2180022235,2179077933,2172862235,2151911725,331,4,16,46732
